owner,sensor,date,latitude,longitude,vertical_datum,sea_water_practical_salinity,qcFlag 
DISL,ioos:station:DISL:MHPA:1,2012-05-01T00:00:00Z,30.6671,-87.9365,3.961,0.42,1111122 
DISL,ioos:station:DISL:MHPA:1,2012-05-01T00:30:00Z,30.6671,-87.9365,3.918,0.42,1111122 
DISL,ioos:station:DISL:MHPA:1,2012-05-01T01:00:00Z,30.6671,-87.9365,3.886,0.42,1111122 
DISL,ioos:station:DISL:MHPA:1,2012-05-01T01:30:00Z,30.6671,-87.9365,3.842,0.42,1111122 
DISL,ioos:station:DISL:MHPA:1,2012-05-01T02:00:00Z,30.6671,-87.9365,3.769,0.42,1111122 
DISL,ioos:station:DISL:MHPA:1,2012-05-01T02:30:00Z,30.6671,-87.9365,3.709,0.43,1111122 
DISL,ioos:station:DISL:MHPA:1,2012-05-01T03:00:00Z,30.6671,-87.9365,3.652,0.42,1111122 
DISL,ioos:station:DISL:MHPA:1,2012-05-01T03:30:00Z,30.6671,-87.9365,3.62,0.44,1111122 
DISL,ioos:station:DISL:MHPA:1,2012-05-01T04:00:00Z,30.6671,-87.9365,3.594,0.43,1111122 
DISL,ioos:station:DISL:MHPA:1,2012-05-01T04:30:00Z,30.6671,-87.9365,3.539,0.42,1111122 
DISL,ioos:station:DISL:MHPA:1,2012-05-01T05:00:00Z,30.6671,-87.9365,3.514,0.42,1111122 
DISL,ioos:station:DISL:MHPA:1,2012-05-01T05:30:00Z,30.6671,-87.9365,3.454,0.42,1111122 
DISL,ioos:station:DISL:MHPA:1,2012-05-01T06:00:00Z,30.6671,-87.9365,3.351,0.42,1111122 
DISL,ioos:station:DISL:MHPA:1,2012-05-01T06:30:00Z,30.6671,-87.9365,3.251,0.43,1111122 
DISL,ioos:station:DISL:MHPA:1,2012-05-01T07:00:00Z,30.6671,-87.9365,3.161,0.43,1111122 
DISL,ioos:station:DISL:MHPA:1,2012-05-01T07:30:00Z,30.6671,-87.9365,3.07,0.43,1111122 
DISL,ioos:station:DISL:MHPA:1,2012-05-01T08:00:00Z,30.6671,-87.9365,2.985,0.43,1111122 
DISL,ioos:station:DISL:MHPA:1,2012-05-01T08:30:00Z,30.6671,-87.9365,2.933,0.43,1111122 
DISL,ioos:station:DISL:MHPA:1,2012-05-01T09:00:00Z,30.6671,-87.9365,2.904,0.44,1111122 
DISL,ioos:station:DISL:MHPA:1,2012-05-01T09:30:00Z,30.6671,-87.9365,2.878,0.45,1111122 
DISL,ioos:station:DISL:MHPA:1,2012-05-01T10:00:00Z,30.6671,-87.9365,2.897,0.45,1111122 
DISL,ioos:station:DISL:MHPA:1,2012-05-01T10:30:00Z,30.6671,-87.9365,2.944,0.44,1111122 
DISL,ioos:station:DISL:MHPA:1,2012-05-01T11:00:00Z,30.6671,-87.9365,3.002,0.43,1111122 
DISL,ioos:station:DISL:MHPA:1,2012-05-01T11:30:00Z,30.6671,-87.9365,3.056,0.5,1111122 
DISL,ioos:station:DISL:MHPA:1,2012-05-01T12:00:00Z,30.6671,-87.9365,3.115,0.43,1111122 
DISL,ioos:station:DISL:MHPA:1,2012-05-01T12:30:00Z,30.6671,-87.9365,3.184,0.43,1111122 
DISL,ioos:station:DISL:MHPA:1,2012-05-01T13:00:00Z,30.6671,-87.9365,3.266,0.43,1111122 
DISL,ioos:station:DISL:MHPA:1,2012-05-01T13:30:00Z,30.6671,-87.9365,3.337,0.43,1111122 
DISL,ioos:station:DISL:MHPA:1,2012-05-01T14:00:00Z,30.6671,-87.9365,3.387,0.43,1111122 
DISL,ioos:station:DISL:MHPA:1,2012-05-01T14:30:00Z,30.6671,-87.9365,3.433,0.43,1111122 
DISL,ioos:station:DISL:MHPA:1,2012-05-01T15:00:00Z,30.6671,-87.9365,3.526,0.43,1111122 
DISL,ioos:station:DISL:MHPA:1,2012-05-01T15:30:00Z,30.6671,-87.9365,3.608,0.43,1111122 
DISL,ioos:station:DISL:MHPA:1,2012-05-01T16:00:00Z,30.6671,-87.9365,3.677,0.45,1111122 
DISL,ioos:station:DISL:MHPA:1,2012-05-01T16:30:00Z,30.6671,-87.9365,3.734,0.48,1111122 
DISL,ioos:station:DISL:MHPA:1,2012-05-01T17:00:00Z,30.6671,-87.9365,3.777,0.43,1111122 
DISL,ioos:station:DISL:MHPA:1,2012-05-01T17:30:00Z,30.6671,-87.9365,3.848,0.43,1111122 
DISL,ioos:station:DISL:MHPA:1,2012-05-01T18:00:00Z,30.6671,-87.9365,3.942,0.43,1111122 
DISL,ioos:station:DISL:MHPA:1,2012-05-01T18:30:00Z,30.6671,-87.9365,3.944,0.43,1111122 
DISL,ioos:station:DISL:MHPA:1,2012-05-01T19:00:00Z,30.6671,-87.9365,3.976,0.43,1111122 
DISL,ioos:station:DISL:MHPA:1,2012-05-01T19:30:00Z,30.6671,-87.9365,3.961,0.44,1111122 
DISL,ioos:station:DISL:MHPA:1,2012-05-01T20:00:00Z,30.6671,-87.9365,3.807,0.43,1111122 
DISL,ioos:station:DISL:MHPA:1,2012-05-01T20:30:00Z,30.6671,-87.9365,3.67,0.43,1111122 
DISL,ioos:station:DISL:MHPA:1,2012-05-01T21:00:00Z,30.6671,-87.9365,3.623,0.43,1111122 
DISL,ioos:station:DISL:MHPA:1,2012-05-01T21:30:00Z,30.6671,-87.9365,3.746,0.42,1111122 
DISL,ioos:station:DISL:MHPA:1,2012-05-01T22:00:00Z,30.6671,-87.9365,3.891,0.43,1111122 
DISL,ioos:station:DISL:MHPA:1,2012-05-01T22:30:00Z,30.6671,-87.9365,3.863,0.43,1111122 
DISL,ioos:station:DISL:MHPA:1,2012-05-01T23:00:00Z,30.6671,-87.9365,3.851,0.43,1111122 
DISL,ioos:station:DISL:MHPA:1,2012-05-01T23:30:00Z,30.6671,-87.9365,3.829,0.43,1111122 
DISL,ioos:station:DISL:MHPA:1,2012-05-02T00:00:00Z,30.6671,-87.9365,3.775,0.43,1111122 
DISL,ioos:station:DISL:MHPA:1,2012-05-02T00:30:00Z,30.6671,-87.9365,3.69,0.42,1111122 
DISL,ioos:station:DISL:MHPA:1,2012-05-02T01:00:00Z,30.6671,-87.9365,3.699,0.42,1111122 
DISL,ioos:station:DISL:MHPA:1,2012-05-02T01:30:00Z,30.6671,-87.9365,3.813,0.42,1111122 
DISL,ioos:station:DISL:MHPA:1,2012-05-02T02:00:00Z,30.6671,-87.9365,3.938,0.43,1111122 
DISL,ioos:station:DISL:MHPA:1,2012-05-02T02:30:00Z,30.6671,-87.9365,3.936,0.43,1111122 
DISL,ioos:station:DISL:MHPA:1,2012-05-02T03:00:00Z,30.6671,-87.9365,3.881,0.43,1111122 
DISL,ioos:station:DISL:MHPA:1,2012-05-02T03:30:00Z,30.6671,-87.9365,3.879,0.43,1111122 
DISL,ioos:station:DISL:MHPA:1,2012-05-02T04:00:00Z,30.6671,-87.9365,3.879,0.43,1111122 
DISL,ioos:station:DISL:MHPA:1,2012-05-02T04:30:00Z,30.6671,-87.9365,3.896,0.41,1111122 
DISL,ioos:station:DISL:MHPA:1,2012-05-02T05:00:00Z,30.6671,-87.9365,3.937,0.41,1111122 
DISL,ioos:station:DISL:MHPA:1,2012-05-02T05:30:00Z,30.6671,-87.9365,3.938,0.43,1111122 
DISL,ioos:station:DISL:MHPA:1,2012-05-02T06:00:00Z,30.6671,-87.9365,3.963,0.43,1111122 
DISL,ioos:station:DISL:MHPA:1,2012-05-02T06:30:00Z,30.6671,-87.9365,3.902,0.42,1111122 
DISL,ioos:station:DISL:MHPA:1,2012-05-02T07:00:00Z,30.6671,-87.9365,3.828,0.41,1111122 
DISL,ioos:station:DISL:MHPA:1,2012-05-02T07:30:00Z,30.6671,-87.9365,3.793,0.41,1111122 
DISL,ioos:station:DISL:MHPA:1,2012-05-02T08:00:00Z,30.6671,-87.9365,3.746,0.43,1111122 
DISL,ioos:station:DISL:MHPA:1,2012-05-02T08:30:00Z,30.6671,-87.9365,3.66,0.43,1111122 
DISL,ioos:station:DISL:MHPA:1,2012-05-02T09:00:00Z,30.6671,-87.9365,3.648,0.43,1111122 
DISL,ioos:station:DISL:MHPA:1,2012-05-02T09:30:00Z,30.6671,-87.9365,3.681,0.43,1111122 
DISL,ioos:station:DISL:MHPA:1,2012-05-02T10:00:00Z,30.6671,-87.9365,3.743,0.42,1111122 
DISL,ioos:station:DISL:MHPA:1,2012-05-02T10:30:00Z,30.6671,-87.9365,3.776,0.43,1111122 
DISL,ioos:station:DISL:MHPA:1,2012-05-02T11:00:00Z,30.6671,-87.9365,3.813,0.42,1111122 
DISL,ioos:station:DISL:MHPA:1,2012-05-02T11:30:00Z,30.6671,-87.9365,3.918,0.46,1111122 
DISL,ioos:station:DISL:MHPA:1,2012-05-02T12:00:00Z,30.6671,-87.9365,3.966,0.42,1111122 
DISL,ioos:station:DISL:MHPA:1,2012-05-02T12:30:00Z,30.6671,-87.9365,3.982,0.42,1111122 
DISL,ioos:station:DISL:MHPA:1,2012-05-02T13:00:00Z,30.6671,-87.9365,4.035,0.43,1111122 
DISL,ioos:station:DISL:MHPA:1,2012-05-02T13:30:00Z,30.6671,-87.9365,4.074,0.42,1111122 
DISL,ioos:station:DISL:MHPA:1,2012-05-02T14:00:00Z,30.6671,-87.9365,4.095,0.42,1111122 
DISL,ioos:station:DISL:MHPA:1,2012-05-02T14:30:00Z,30.6671,-87.9365,4.186,0.42,1111122 
DISL,ioos:station:DISL:MHPA:1,2012-05-02T15:00:00Z,30.6671,-87.9365,4.344,0.42,1111122 
DISL,ioos:station:DISL:MHPA:1,2012-05-02T15:30:00Z,30.6671,-87.9365,4.416,0.42,1111122 
DISL,ioos:station:DISL:MHPA:1,2012-05-02T16:00:00Z,30.6671,-87.9365,4.483,0.42,1111122 
DISL,ioos:station:DISL:MHPA:1,2012-05-02T16:30:00Z,30.6671,-87.9365,4.59,0.42,1111122 
DISL,ioos:station:DISL:MHPA:1,2012-05-02T17:00:00Z,30.6671,-87.9365,4.603,0.42,1111122 
DISL,ioos:station:DISL:MHPA:1,2012-05-02T17:30:00Z,30.6671,-87.9365,4.609,0.42,1111122 
DISL,ioos:station:DISL:MHPA:1,2012-05-02T18:00:00Z,30.6671,-87.9365,4.586,0.4,1111122 
DISL,ioos:station:DISL:MHPA:1,2012-05-02T18:30:00Z,30.6671,-87.9365,4.502,0.41,1111122 
DISL,ioos:station:DISL:MHPA:1,2012-05-02T19:00:00Z,30.6671,-87.9365,4.454,0.4,1111122 
DISL,ioos:station:DISL:MHPA:1,2012-05-02T19:30:00Z,30.6671,-87.9365,4.315,0.4,1111122 
DISL,ioos:station:DISL:MHPA:1,2012-05-02T20:00:00Z,30.6671,-87.9365,4.171,0.4,1111122 
DISL,ioos:station:DISL:MHPA:1,2012-05-02T20:30:00Z,30.6671,-87.9365,4.231,0.4,1111122 
DISL,ioos:station:DISL:MHPA:1,2012-05-02T21:00:00Z,30.6671,-87.9365,4.295,0.4,1111122 
DISL,ioos:station:DISL:MHPA:1,2012-05-02T21:30:00Z,30.6671,-87.9365,4.164,0.4,1111122 
DISL,ioos:station:DISL:MHPA:1,2012-05-02T22:00:00Z,30.6671,-87.9365,4.244,0.4,1111122 
DISL,ioos:station:DISL:MHPA:1,2012-05-02T22:30:00Z,30.6671,-87.9365,4.444,0.4,1111122 
DISL,ioos:station:DISL:MHPA:1,2012-05-02T23:00:00Z,30.6671,-87.9365,4.596,0.4,1111122 
DISL,ioos:station:DISL:MHPA:1,2012-05-02T23:30:00Z,30.6671,-87.9365,4.431,0.41,1111122 
DISL,ioos:station:DISL:MHPA:1,2012-05-03T00:00:00Z,30.6671,-87.9365,4.164,0.4,1111122 
DISL,ioos:station:DISL:MHPA:1,2012-05-03T00:30:00Z,30.6671,-87.9365,3.95,0.4,1111122 
DISL,ioos:station:DISL:MHPA:1,2012-05-03T01:00:00Z,30.6671,-87.9365,3.878,0.4,1111122 
DISL,ioos:station:DISL:MHPA:1,2012-05-03T01:30:00Z,30.6671,-87.9365,3.908,0.4,1111122 
DISL,ioos:station:DISL:MHPA:1,2012-05-03T02:00:00Z,30.6671,-87.9365,3.892,0.39,1111122 
DISL,ioos:station:DISL:MHPA:1,2012-05-03T02:30:00Z,30.6671,-87.9365,3.987,0.39,1111122 
DISL,ioos:station:DISL:MHPA:1,2012-05-03T03:00:00Z,30.6671,-87.9365,3.744,0.38,1111122 
DISL,ioos:station:DISL:MHPA:1,2012-05-03T03:30:00Z,30.6671,-87.9365,4.061,0.37,1111122 
DISL,ioos:station:DISL:MHPA:1,2012-05-03T04:00:00Z,30.6671,-87.9365,4.082,0.37,1111122 
DISL,ioos:station:DISL:MHPA:1,2012-05-03T04:30:00Z,30.6671,-87.9365,4.148,0.37,1111122 
DISL,ioos:station:DISL:MHPA:1,2012-05-03T05:00:00Z,30.6671,-87.9365,4.081,0.37,1111122 
DISL,ioos:station:DISL:MHPA:1,2012-05-03T05:30:00Z,30.6671,-87.9365,4.041,0.37,1111122 
DISL,ioos:station:DISL:MHPA:1,2012-05-03T06:00:00Z,30.6671,-87.9365,3.97,0.36,1111122 
DISL,ioos:station:DISL:MHPA:1,2012-05-03T06:30:00Z,30.6671,-87.9365,3.963,0.36,1111122 
DISL,ioos:station:DISL:MHPA:1,2012-05-03T07:00:00Z,30.6671,-87.9365,4.158,0.36,1111122 
DISL,ioos:station:DISL:MHPA:1,2012-05-03T07:30:00Z,30.6671,-87.9365,4.221,0.36,1111122 
DISL,ioos:station:DISL:MHPA:1,2012-05-03T08:00:00Z,30.6671,-87.9365,4.178,0.34,1111122 
DISL,ioos:station:DISL:MHPA:1,2012-05-03T08:30:00Z,30.6671,-87.9365,4.221,0.35,1111122 
DISL,ioos:station:DISL:MHPA:1,2012-05-03T09:00:00Z,30.6671,-87.9365,4.184,0.36,1111122 
DISL,ioos:station:DISL:MHPA:1,2012-05-03T09:30:00Z,30.6671,-87.9365,4.155,0.36,1111122 
DISL,ioos:station:DISL:MHPA:1,2012-05-03T10:00:00Z,30.6671,-87.9365,4.112,0.36,1111122 
DISL,ioos:station:DISL:MHPA:1,2012-05-03T10:30:00Z,30.6671,-87.9365,4.2,0.36,1111122 
DISL,ioos:station:DISL:MHPA:1,2012-05-03T11:00:00Z,30.6671,-87.9365,4.233,0.36,1111122 
DISL,ioos:station:DISL:MHPA:1,2012-05-03T11:30:00Z,30.6671,-87.9365,4.439,0.36,1111122 
DISL,ioos:station:DISL:MHPA:1,2012-05-03T12:00:00Z,30.6671,-87.9365,4.625,0.36,1111122 
DISL,ioos:station:DISL:MHPA:1,2012-05-03T12:30:00Z,30.6671,-87.9365,4.621,0.36,1111122 
DISL,ioos:station:DISL:MHPA:1,2012-05-03T13:00:00Z,30.6671,-87.9365,4.705,0.36,1111122 
DISL,ioos:station:DISL:MHPA:1,2012-05-03T13:30:00Z,30.6671,-87.9365,4.682,0.36,1111122 
DISL,ioos:station:DISL:MHPA:1,2012-05-03T14:00:00Z,30.6671,-87.9365,4.589,0.36,1111122 
DISL,ioos:station:DISL:MHPA:1,2012-05-03T14:30:00Z,30.6671,-87.9365,4.618,0.36,1111122 
DISL,ioos:station:DISL:MHPA:1,2012-05-03T15:00:00Z,30.6671,-87.9365,4.689,0.36,1111122 
DISL,ioos:station:DISL:MHPA:1,2012-05-03T15:30:00Z,30.6671,-87.9365,4.691,0.36,1111122 
DISL,ioos:station:DISL:MHPA:1,2012-05-03T16:00:00Z,30.6671,-87.9365,4.777,0.36,1111122 
DISL,ioos:station:DISL:MHPA:1,2012-05-03T16:30:00Z,30.6671,-87.9365,4.769,0.36,1111122 
DISL,ioos:station:DISL:MHPA:1,2012-05-03T17:00:00Z,30.6671,-87.9365,4.55,0.36,1111122 
DISL,ioos:station:DISL:MHPA:1,2012-05-03T17:30:00Z,30.6671,-87.9365,4.661,0.36,1111122 
DISL,ioos:station:DISL:MHPA:1,2012-05-03T18:00:00Z,30.6671,-87.9365,4.496,0.36,1111122 
DISL,ioos:station:DISL:MHPA:1,2012-05-03T18:30:00Z,30.6671,-87.9365,4.559,0.36,1111122 
DISL,ioos:station:DISL:MHPA:1,2012-05-03T19:00:00Z,30.6671,-87.9365,4.556,0.36,1111122 
DISL,ioos:station:DISL:MHPA:1,2012-05-03T19:30:00Z,30.6671,-87.9365,4.49,0.36,1111122 
DISL,ioos:station:DISL:MHPA:1,2012-05-03T20:00:00Z,30.6671,-87.9365,4.432,0.36,1111122 
DISL,ioos:station:DISL:MHPA:1,2012-05-03T20:30:00Z,30.6671,-87.9365,4.352,0.36,1111122 
DISL,ioos:station:DISL:MHPA:1,2012-05-03T21:00:00Z,30.6671,-87.9365,4.209,0.36,1111122 
DISL,ioos:station:DISL:MHPA:1,2012-05-03T21:30:00Z,30.6671,-87.9365,4.145,0.36,1111122 
DISL,ioos:station:DISL:MHPA:1,2012-05-03T22:00:00Z,30.6671,-87.9365,4.043,0.36,1111122 
DISL,ioos:station:DISL:MHPA:1,2012-05-03T22:30:00Z,30.6671,-87.9365,3.922,0.36,1111122 
DISL,ioos:station:DISL:MHPA:1,2012-05-03T23:00:00Z,30.6671,-87.9365,3.838,0.36,1111122 
DISL,ioos:station:DISL:MHPA:1,2012-05-03T23:30:00Z,30.6671,-87.9365,3.762,0.35,1111122 
DISL,ioos:station:DISL:MHPA:1,2012-05-04T00:00:00Z,30.6671,-87.9365,3.676,0.35,1111122 
DISL,ioos:station:DISL:MHPA:1,2012-05-04T00:30:00Z,30.6671,-87.9365,3.602,0.35,1111122 
DISL,ioos:station:DISL:MHPA:1,2012-05-04T01:00:00Z,30.6671,-87.9365,3.58,0.35,1111122 
DISL,ioos:station:DISL:MHPA:1,2012-05-04T01:30:00Z,30.6671,-87.9365,3.563,0.35,1111122 
DISL,ioos:station:DISL:MHPA:1,2012-05-04T02:00:00Z,30.6671,-87.9365,3.507,0.36,1111122 
DISL,ioos:station:DISL:MHPA:1,2012-05-04T02:30:00Z,30.6671,-87.9365,3.523,0.36,1111122 
DISL,ioos:station:DISL:MHPA:1,2012-05-04T03:00:00Z,30.6671,-87.9365,3.595,0.36,1111122 
DISL,ioos:station:DISL:MHPA:1,2012-05-04T03:30:00Z,30.6671,-87.9365,3.624,0.36,1111122 
DISL,ioos:station:DISL:MHPA:1,2012-05-04T04:00:00Z,30.6671,-87.9365,3.658,0.36,1111122 
DISL,ioos:station:DISL:MHPA:1,2012-05-04T04:30:00Z,30.6671,-87.9365,3.752,0.36,1111122 
DISL,ioos:station:DISL:MHPA:1,2012-05-04T05:00:00Z,30.6671,-87.9365,3.822,0.36,1111122 
DISL,ioos:station:DISL:MHPA:1,2012-05-04T05:30:00Z,30.6671,-87.9365,3.857,0.36,1111122 
DISL,ioos:station:DISL:MHPA:1,2012-05-04T06:00:00Z,30.6671,-87.9365,3.921,0.36,1111122 
DISL,ioos:station:DISL:MHPA:1,2012-05-04T06:30:00Z,30.6671,-87.9365,3.996,0.36,1111122 
DISL,ioos:station:DISL:MHPA:1,2012-05-04T07:00:00Z,30.6671,-87.9365,4.011,0.36,1111122 
DISL,ioos:station:DISL:MHPA:1,2012-05-04T07:30:00Z,30.6671,-87.9365,4.128,0.36,1111122 
DISL,ioos:station:DISL:MHPA:1,2012-05-04T08:00:00Z,30.6671,-87.9365,4.23,0.36,1111122 
DISL,ioos:station:DISL:MHPA:1,2012-05-04T08:30:00Z,30.6671,-87.9365,4.213,0.36,1111122 
DISL,ioos:station:DISL:MHPA:1,2012-05-04T09:00:00Z,30.6671,-87.9365,4.26,0.35,1111122 
DISL,ioos:station:DISL:MHPA:1,2012-05-04T09:30:00Z,30.6671,-87.9365,4.289,0.35,1111122 
DISL,ioos:station:DISL:MHPA:1,2012-05-04T10:00:00Z,30.6671,-87.9365,4.322,0.36,1111122 
DISL,ioos:station:DISL:MHPA:1,2012-05-04T10:30:00Z,30.6671,-87.9365,4.355,0.35,1111122 
DISL,ioos:station:DISL:MHPA:1,2012-05-04T11:00:00Z,30.6671,-87.9365,4.41,0.35,1111122 
DISL,ioos:station:DISL:MHPA:1,2012-05-04T11:30:00Z,30.6671,-87.9365,4.441,0.35,1111122 
DISL,ioos:station:DISL:MHPA:1,2012-05-04T12:00:00Z,30.6671,-87.9365,4.51,0.36,1111122 
DISL,ioos:station:DISL:MHPA:1,2012-05-04T12:30:00Z,30.6671,-87.9365,4.634,0.37,1111122 
DISL,ioos:station:DISL:MHPA:1,2012-05-04T13:00:00Z,30.6671,-87.9365,4.662,0.37,1111122 
DISL,ioos:station:DISL:MHPA:1,2012-05-04T13:30:00Z,30.6671,-87.9365,4.703,0.36,1111122 
DISL,ioos:station:DISL:MHPA:1,2012-05-04T14:00:00Z,30.6671,-87.9365,4.78,0.36,1111122 
DISL,ioos:station:DISL:MHPA:1,2012-05-04T14:30:00Z,30.6671,-87.9365,4.837,0.37,1111122 
DISL,ioos:station:DISL:MHPA:1,2012-05-04T15:00:00Z,30.6671,-87.9365,4.84,0.36,1111122 
DISL,ioos:station:DISL:MHPA:1,2012-05-04T15:30:00Z,30.6671,-87.9365,4.804,0.36,1111122 
DISL,ioos:station:DISL:MHPA:1,2012-05-04T16:00:00Z,30.6671,-87.9365,4.811,0.36,1111122 
DISL,ioos:station:DISL:MHPA:1,2012-05-04T16:30:00Z,30.6671,-87.9365,4.79,0.36,1111122 
DISL,ioos:station:DISL:MHPA:1,2012-05-04T17:00:00Z,30.6671,-87.9365,4.725,0.39,1111122 
DISL,ioos:station:DISL:MHPA:1,2012-05-04T17:30:00Z,30.6671,-87.9365,4.65,0.4,1111122 
DISL,ioos:station:DISL:MHPA:1,2012-05-04T18:00:00Z,30.6671,-87.9365,4.576,0.36,1111122 
DISL,ioos:station:DISL:MHPA:1,2012-05-04T18:30:00Z,30.6671,-87.9365,4.5,0.38,1111122 
DISL,ioos:station:DISL:MHPA:1,2012-05-04T19:00:00Z,30.6671,-87.9365,4.386,0.36,1111122 
DISL,ioos:station:DISL:MHPA:1,2012-05-04T19:30:00Z,30.6671,-87.9365,4.271,0.37,1111122 
DISL,ioos:station:DISL:MHPA:1,2012-05-04T20:00:00Z,30.6671,-87.9365,4.212,0.37,1111122 
DISL,ioos:station:DISL:MHPA:1,2012-05-04T20:30:00Z,30.6671,-87.9365,4.112,0.36,1111122 
DISL,ioos:station:DISL:MHPA:1,2012-05-04T21:00:00Z,30.6671,-87.9365,4.011,0.36,1111122 
DISL,ioos:station:DISL:MHPA:1,2012-05-04T21:30:00Z,30.6671,-87.9365,3.905,0.36,1111122 
DISL,ioos:station:DISL:MHPA:1,2012-05-04T22:00:00Z,30.6671,-87.9365,3.809,0.36,1111122 
DISL,ioos:station:DISL:MHPA:1,2012-05-04T22:30:00Z,30.6671,-87.9365,3.704,0.36,1111122 
DISL,ioos:station:DISL:MHPA:1,2012-05-04T23:00:00Z,30.6671,-87.9365,3.612,0.36,1111122 
DISL,ioos:station:DISL:MHPA:1,2012-05-04T23:30:00Z,30.6671,-87.9365,3.542,0.36,1111122 
DISL,ioos:station:DISL:MHPA:1,2012-05-05T00:00:00Z,30.6671,-87.9365,3.501,0.36,1111122 
DISL,ioos:station:DISL:MHPA:1,2012-05-05T00:30:00Z,30.6671,-87.9365,3.42,0.36,1111122 
DISL,ioos:station:DISL:MHPA:1,2012-05-05T01:00:00Z,30.6671,-87.9365,3.33,0.36,1111122 
DISL,ioos:station:DISL:MHPA:1,2012-05-05T01:30:00Z,30.6671,-87.9365,3.248,0.37,1111122 
DISL,ioos:station:DISL:MHPA:1,2012-05-05T02:00:00Z,30.6671,-87.9365,3.189,0.38,1111122 
DISL,ioos:station:DISL:MHPA:1,2012-05-05T02:30:00Z,30.6671,-87.9365,3.142,0.37,1111122 
DISL,ioos:station:DISL:MHPA:1,2012-05-05T03:00:00Z,30.6671,-87.9365,3.142,0.38,1111122 
DISL,ioos:station:DISL:MHPA:1,2012-05-05T03:30:00Z,30.6671,-87.9365,3.202,0.39,1111122 
DISL,ioos:station:DISL:MHPA:1,2012-05-05T04:00:00Z,30.6671,-87.9365,3.251,0.38,1111122 
DISL,ioos:station:DISL:MHPA:1,2012-05-05T04:30:00Z,30.6671,-87.9365,3.314,0.37,1111122 
DISL,ioos:station:DISL:MHPA:1,2012-05-05T05:00:00Z,30.6671,-87.9365,3.389,0.37,1111122 
DISL,ioos:station:DISL:MHPA:1,2012-05-05T05:30:00Z,30.6671,-87.9365,3.497,0.37,1111122 
DISL,ioos:station:DISL:MHPA:1,2012-05-05T06:00:00Z,30.6671,-87.9365,3.668,0.37,1111122 
DISL,ioos:station:DISL:MHPA:1,2012-05-05T06:30:00Z,30.6671,-87.9365,3.804,0.37,1111122 
DISL,ioos:station:DISL:MHPA:1,2012-05-05T07:00:00Z,30.6671,-87.9365,3.941,0.38,1111122 
DISL,ioos:station:DISL:MHPA:1,2012-05-05T07:30:00Z,30.6671,-87.9365,4.055,0.38,1111122 
DISL,ioos:station:DISL:MHPA:1,2012-05-05T08:00:00Z,30.6671,-87.9365,4.126,0.4,1111122 
DISL,ioos:station:DISL:MHPA:1,2012-05-05T08:30:00Z,30.6671,-87.9365,4.185,0.38,1111122 
DISL,ioos:station:DISL:MHPA:1,2012-05-05T09:00:00Z,30.6671,-87.9365,4.226,0.38,1111122 
DISL,ioos:station:DISL:MHPA:1,2012-05-05T09:30:00Z,30.6671,-87.9365,4.282,0.38,1111122 
DISL,ioos:station:DISL:MHPA:1,2012-05-05T10:00:00Z,30.6671,-87.9365,4.319,0.4,1111122 
DISL,ioos:station:DISL:MHPA:1,2012-05-05T10:30:00Z,30.6671,-87.9365,4.365,0.4,1111122 
DISL,ioos:station:DISL:MHPA:1,2012-05-05T11:00:00Z,30.6671,-87.9365,4.42,0.4,1111122 
DISL,ioos:station:DISL:MHPA:1,2012-05-05T11:30:00Z,30.6671,-87.9365,4.501,0.42,1111122 
DISL,ioos:station:DISL:MHPA:1,2012-05-05T12:00:00Z,30.6671,-87.9365,4.553,0.5,1111122 
DISL,ioos:station:DISL:MHPA:1,2012-05-05T12:30:00Z,30.6671,-87.9365,4.608,0.44,1111122 
DISL,ioos:station:DISL:MHPA:1,2012-05-05T13:00:00Z,30.6671,-87.9365,4.703,0.49,1111122 
DISL,ioos:station:DISL:MHPA:1,2012-05-05T13:30:00Z,30.6671,-87.9365,4.774,0.47,1111122 
DISL,ioos:station:DISL:MHPA:1,2012-05-05T14:00:00Z,30.6671,-87.9365,4.836,0.5,1111122 
DISL,ioos:station:DISL:MHPA:1,2012-05-05T14:30:00Z,30.6671,-87.9365,4.865,0.5,1111122 
DISL,ioos:station:DISL:MHPA:1,2012-05-05T15:00:00Z,30.6671,-87.9365,4.92,0.56,1111122 
DISL,ioos:station:DISL:MHPA:1,2012-05-05T15:30:00Z,30.6671,-87.9365,4.91,0.48,1111122 
DISL,ioos:station:DISL:MHPA:1,2012-05-05T16:00:00Z,30.6671,-87.9365,4.903,0.49,1111122 
DISL,ioos:station:DISL:MHPA:1,2012-05-05T16:30:00Z,30.6671,-87.9365,4.875,0.48,1111122 
DISL,ioos:station:DISL:MHPA:1,2012-05-05T17:00:00Z,30.6671,-87.9365,4.835,0.43,1111122 
DISL,ioos:station:DISL:MHPA:1,2012-05-05T17:30:00Z,30.6671,-87.9365,4.763,0.43,1111122 
DISL,ioos:station:DISL:MHPA:1,2012-05-05T18:00:00Z,30.6671,-87.9365,4.65,0.45,1111122 
DISL,ioos:station:DISL:MHPA:1,2012-05-05T18:30:00Z,30.6671,-87.9365,4.553,0.45,1111122 
DISL,ioos:station:DISL:MHPA:1,2012-05-05T19:00:00Z,30.6671,-87.9365,4.451,0.46,1111122 
DISL,ioos:station:DISL:MHPA:1,2012-05-05T19:30:00Z,30.6671,-87.9365,4.338,0.47,1111122 
DISL,ioos:station:DISL:MHPA:1,2012-05-05T20:00:00Z,30.6671,-87.9365,4.263,0.45,1111122 
DISL,ioos:station:DISL:MHPA:1,2012-05-05T20:30:00Z,30.6671,-87.9365,4.278,0.46,1111122 
DISL,ioos:station:DISL:MHPA:1,2012-05-05T21:00:00Z,30.6671,-87.9365,4.194,0.43,1111122 
DISL,ioos:station:DISL:MHPA:1,2012-05-05T21:30:00Z,30.6671,-87.9365,4.089,0.42,1111122 
DISL,ioos:station:DISL:MHPA:1,2012-05-05T22:00:00Z,30.6671,-87.9365,3.982,0.42,1111122 
DISL,ioos:station:DISL:MHPA:1,2012-05-05T22:30:00Z,30.6671,-87.9365,3.868,0.41,1111122 
DISL,ioos:station:DISL:MHPA:1,2012-05-05T23:00:00Z,30.6671,-87.9365,3.77,0.4,1111122 
DISL,ioos:station:DISL:MHPA:1,2012-05-05T23:30:00Z,30.6671,-87.9365,3.653,0.4,1111122 
DISL,ioos:station:DISL:MHPA:1,2012-05-06T00:00:00Z,30.6671,-87.9365,3.529,0.4,1111122 
DISL,ioos:station:DISL:MHPA:1,2012-05-06T00:30:00Z,30.6671,-87.9365,3.415,0.4,1111122 
DISL,ioos:station:DISL:MHPA:1,2012-05-06T01:00:00Z,30.6671,-87.9365,3.304,0.41,1111122 
DISL,ioos:station:DISL:MHPA:1,2012-05-06T01:30:00Z,30.6671,-87.9365,3.195,0.4,1111122 
DISL,ioos:station:DISL:MHPA:1,2012-05-06T02:00:00Z,30.6671,-87.9365,3.098,0.4,1111122 
DISL,ioos:station:DISL:MHPA:1,2012-05-06T02:30:00Z,30.6671,-87.9365,3.009,0.41,1111122 
DISL,ioos:station:DISL:MHPA:1,2012-05-06T03:00:00Z,30.6671,-87.9365,2.955,0.41,1111122 
DISL,ioos:station:DISL:MHPA:1,2012-05-06T03:30:00Z,30.6671,-87.9365,2.92,0.4,1111122 
DISL,ioos:station:DISL:MHPA:1,2012-05-06T04:00:00Z,30.6671,-87.9365,2.922,0.4,1111122 
DISL,ioos:station:DISL:MHPA:1,2012-05-06T04:30:00Z,30.6671,-87.9365,2.943,0.41,1111122 
DISL,ioos:station:DISL:MHPA:1,2012-05-06T05:00:00Z,30.6671,-87.9365,2.931,0.4,1111122 
DISL,ioos:station:DISL:MHPA:1,2012-05-06T05:30:00Z,30.6671,-87.9365,2.96,0.44,1111122 
DISL,ioos:station:DISL:MHPA:1,2012-05-06T06:00:00Z,30.6671,-87.9365,3.032,0.45,1111122 
DISL,ioos:station:DISL:MHPA:1,2012-05-06T06:30:00Z,30.6671,-87.9365,3.134,0.49,1111122 
DISL,ioos:station:DISL:MHPA:1,2012-05-06T07:00:00Z,30.6671,-87.9365,3.278,0.47,1111122 
DISL,ioos:station:DISL:MHPA:1,2012-05-06T07:30:00Z,30.6671,-87.9365,3.442,0.45,1111122 
DISL,ioos:station:DISL:MHPA:1,2012-05-06T08:00:00Z,30.6671,-87.9365,3.583,0.44,1111122 
DISL,ioos:station:DISL:MHPA:1,2012-05-06T08:30:00Z,30.6671,-87.9365,3.703,0.46,1111122 
DISL,ioos:station:DISL:MHPA:1,2012-05-06T09:00:00Z,30.6671,-87.9365,3.815,0.49,1111122 
DISL,ioos:station:DISL:MHPA:1,2012-05-06T09:30:00Z,30.6671,-87.9365,3.911,0.51,1111122 
DISL,ioos:station:DISL:MHPA:1,2012-05-06T10:00:00Z,30.6671,-87.9365,4.013,0.51,1111122 
DISL,ioos:station:DISL:MHPA:1,2012-05-06T10:30:00Z,30.6671,-87.9365,4.132,0.49,1111122 
DISL,ioos:station:DISL:MHPA:1,2012-05-06T11:00:00Z,30.6671,-87.9365,4.211,0.46,1111122 
DISL,ioos:station:DISL:MHPA:1,2012-05-06T11:30:00Z,30.6671,-87.9365,4.257,0.44,1111122 
DISL,ioos:station:DISL:MHPA:1,2012-05-06T12:00:00Z,30.6671,-87.9365,4.363,0.48,1111122 
DISL,ioos:station:DISL:MHPA:1,2012-05-06T12:30:00Z,30.6671,-87.9365,4.45,0.5,1111122 
DISL,ioos:station:DISL:MHPA:1,2012-05-06T13:00:00Z,30.6671,-87.9365,4.554,0.49,1111122 
DISL,ioos:station:DISL:MHPA:1,2012-05-06T13:30:00Z,30.6671,-87.9365,4.669,0.52,1111122 
DISL,ioos:station:DISL:MHPA:1,2012-05-06T14:00:00Z,30.6671,-87.9365,4.752,0.56,1111122 
DISL,ioos:station:DISL:MHPA:1,2012-05-06T14:30:00Z,30.6671,-87.9365,4.858,0.56,1111122 
DISL,ioos:station:DISL:MHPA:1,2012-05-06T15:00:00Z,30.6671,-87.9365,4.953,0.63,1111122 
DISL,ioos:station:DISL:MHPA:1,2012-05-06T15:30:00Z,30.6671,-87.9365,5.001,0.61,1111122 